Retour au catalogue

STARLINK-34743

ActifCommunicationsSSO
NORAD 64937·PAYLOAD·🇺🇸 United States

Lancé Jul 26, 2025 depuis Vandenberg Space Force Base

Loading…

Prochains Passages (prochaines 24 heures)

TLE

FraisSource: CelesTrak SupGP

Époque: Sep 14, 2026, 20:59 UTC

1 64937C 25158F   26257.87479167  .00019711  00000+0  61214-3 0  2573
2 64937  97.2851 116.2292 0001673  96.1522 212.0332 15.33415624    16

Suivez STARLINK-34743 en temps réel avec AllMySat

Download on the App Store